GEFSMW_prec_meanprecacc_210.txt.gz
Total_Precipitation_Accumulation
0.01 0.01 0.01 0.02 0.03 0.06 0.08 0.10 0.10 0.16 0.18 0.18 0.23 0.27 0.24 0.24 0.26 0.24 0.20 0.20 0.18 0.18 0.18 0.17 0.17 0.17 0.18 0.20 0.24 0.26 0.27 0.27 0.31 0.35 0.32 0.30 0.31 0.32 0.30 0.28 0.30 0.34 0.37
0.01 0.02 0.03 0.03 0.02 0.04 0.06 0.09 0.09 0.12 0.17 0.17 0.18 0.22 0.22 0.22 0.23 0.24 0.24 0.23 0.21 0.18 0.18 0.18 0.20 0.19 0.17 0.16 0.17 0.21 0.25 0.24 0.25 0.33 0.37 0.31 0.27 0.25 0.22 0.22 0.25 0.31 0.38
0.01 0.02 0.03 0.03 0.03 0.04 0.05 0.08 0.09 0.09 0.13 0.18 0.21 0.25 0.29 0.27 0.27 0.27 0.25 0.25 0.24 0.20 0.18 0.18 0.20 0.20 0.20 0.18 0.16 0.18 0.23 0.25 0.25 0.29 0.44 0.50 0.36 0.26 0.19 0.19 0.20 0.22 0.24
0.01 0.01 0.02 0.02 0.03 0.04 0.05 0.08 0.11 0.10 0.10 0.14 0.22 0.25 0.28 0.26 0.22 0.21 0.23 0.24 0.24 0.23 0.19 0.19 0.20 0.22 0.23 0.21 0.20 0.19 0.21 0.25 0.26 0.27 0.30 0.37 0.40 0.46 0.32 0.13 0.11 0.12 0.13
0.01 0.02 0.01 0.02 0.02 0.02 0.03 0.06 0.11 0.12 0.11 0.12 0.15 0.22 0.24 0.23 0.24 0.25 0.24 0.26 0.26 0.24 0.22 0.20 0.21 0.22 0.23 0.22 0.22 0.21 0.23 0.24 0.26 0.29 0.29 0.27 0.26 0.34 0.50 0.28 0.10 0.09 0.09
0.02 0.03 0.03 0.03 0.02 0.03 0.04 0.05 0.08 0.11 0.12 0.14 0.15 0.19 0.22 0.23 0.26 0.28 0.29 0.27 0.27 0.26 0.24 0.23 0.23 0.23 0.24 0.24 0.25 0.25 0.24 0.24 0.26 0.28 0.30 0.35 0.38 0.33 0.42 0.40 0.21 0.15 0.11
0.03 0.03 0.03 0.04 0.03 0.03 0.04 0.05 0.07 0.10 0.12 0.13 0.15 0.16 0.20 0.23 0.24 0.28 0.29 0.28 0.28 0.29 0.27 0.25 0.25 0.26 0.26 0.27 0.29 0.31 0.31 0.30 0.30 0.30 0.31 0.34 0.37 0.37 0.43 0.49 0.37 0.24 0.15
0.03 0.03 0.03 0.02 0.03 0.03 0.03 0.05 0.06 0.08 0.11 0.13 0.15 0.16 0.18 0.21 0.21 0.25 0.30 0.30 0.28 0.28 0.30 0.32 0.31 0.30 0.31 0.33 0.35 0.36 0.37 0.37 0.37 0.36 0.37 0.40 0.38 0.40 0.46 0.54 0.60 0.49 0.25
0.03 0.03 0.02 0.02 0.02 0.03 0.03 0.06 0.07 0.08 0.09 0.13 0.16 0.18 0.18 0.19 0.19 0.20 0.26 0.30 0.29 0.27 0.29 0.35 0.39 0.41 0.41 0.42 0.44 0.45 0.44 0.46 0.47 0.46 0.46 0.48 0.44 0.43 0.44 0.49 0.63 0.83 0.68
0.04 0.03 0.03 0.02 0.03 0.03 0.03 0.06 0.09 0.09 0.10 0.11 0.15 0.20 0.20 0.21 0.20 0.20 0.22 0.27 0.30 0.31 0.30 0.31 0.36 0.43 0.46 0.48 0.49 0.51 0.52 0.55 0.57 0.57 0.56 0.54 0.53 0.53 0.53 0.54 0.57 0.71 0.88
0.06 0.05 0.03 0.03 0.03 0.04 0.05 0.06 0.10 0.11 0.12 0.13 0.14 0.17 0.23 0.25 0.27 0.28 0.28 0.29 0.32 0.37 0.38 0.34 0.33 0.34 0.40 0.47 0.53 0.54 0.57 0.61 0.62 0.63 0.66 0.65 0.65 0.67 0.66 0.67 0.67 0.69 0.85
0.06 0.06 0.05 0.04 0.05 0.05 0.07 0.09 0.12 0.12 0.14 0.15 0.16 0.17 0.22 0.29 0.33 0.36 0.36 0.37 0.39 0.41 0.43 0.44 0.42 0.36 0.35 0.41 0.48 0.52 0.54 0.59 0.63 0.66 0.71 0.73 0.74 0.77 0.77 0.80 0.78 0.75 0.77
0.05 0.05 0.06 0.06 0.07 0.07 0.08 0.13 0.16 0.15 0.15 0.16 0.17 0.21 0.24 0.31 0.38 0.43 0.45 0.45 0.45 0.48 0.49 0.49 0.51 0.48 0.47 0.50 0.52 0.54 0.56 0.58 0.59 0.61 0.68 0.74 0.81 0.85 0.83 0.84 0.83 0.77 0.70
0.04 0.05 0.05 0.06 0.07 0.08 0.09 0.14 0.17 0.17 0.20 0.23 0.24 0.28 0.35 0.39 0.44 0.48 0.49 0.49 0.50 0.52 0.55 0.56 0.56 0.58 0.64 0.75 0.78 0.68 0.65 0.63 0.60 0.60 0.66 0.73 0.84 0.93 1.00 1.05 0.96 0.87 0.88
0.04 0.06 0.06 0.06 0.07 0.09 0.11 0.15 0.20 0.24 0.29 0.36 0.38 0.38 0.38 0.42 0.42 0.44 0.46 0.49 0.52 0.55 0.55 0.54 0.57 0.62 0.74 1.03 1.05 0.88 0.77 0.71 0.67 0.64 0.65 0.70 0.86 1.07 1.27 1.39 1.32 1.25 1.27
0.06 0.07 0.08 0.08 0.08 0.12 0.17 0.24 0.30 0.34 0.38 0.43 0.46 0.44 0.39 0.39 0.43 0.43 0.43 0.47 0.51 0.50 0.48 0.48 0.50 0.60 0.78 1.15 1.19 0.98 0.76 0.72 0.72 0.71 0.65 0.63 0.72 0.84 1.01 1.23 1.30 1.39 1.48
0.07 0.09 0.10 0.13 0.14 0.18 0.25 0.32 0.36 0.38 0.39 0.42 0.46 0.48 0.44 0.40 0.41 0.42 0.39 0.39 0.40 0.41 0.40 0.39 0.40 0.44 0.62 1.02 1.11 0.95 0.71 0.63 0.63 0.64 0.59 0.59 0.58 0.63 0.62 0.74 0.83 0.93 1.10
0.11 0.13 0.15 0.17 0.20 0.25 0.29 0.34 0.37 0.39 0.40 0.40 0.39 0.40 0.37 0.32 0.32 0.36 0.33 0.32 0.33 0.36 0.37 0.36 0.35 0.33 0.39 0.76 1.03 0.91 0.61 0.56 0.57 0.56 0.57 0.59 0.57 0.56 0.63 0.70 0.74 0.69 0.72
0.10 0.10 0.11 0.14 0.18 0.23 0.27 0.28 0.29 0.31 0.31 0.30 0.28 0.28 0.25 0.23 0.26 0.31 0.28 0.27 0.27 0.30 0.33 0.35 0.37 0.35 0.35 0.58 0.97 0.98 0.63 0.60 0.56 0.56 0.66 0.71 0.64 0.66 0.81 0.92 0.90 0.74 0.63
0.05 0.06 0.06 0.08 0.10 0.14 0.17 0.17 0.18 0.19 0.21 0.21 0.20 0.25 0.21 0.18 0.21 0.26 0.25 0.25 0.26 0.29 0.31 0.33 0.39 0.39 0.36 0.50 0.89 1.13 0.76 0.67 0.59 0.60 0.71 0.94 0.90 0.87 0.91 0.97 0.99 0.94 0.71
0.04 0.04 0.05 0.07 0.11 0.13 0.14 0.14 0.12 0.13 0.14 0.15 0.17 0.23 0.24 0.20 0.19 0.22 0.26 0.25 0.26 0.29 0.31 0.32 0.36 0.39 0.37 0.42 0.71 1.15 1.04 0.82 0.71 0.70 0.78 0.90 0.95 0.92 0.92 0.97 0.96 0.98 0.92
0.04 0.04 0.06 0.10 0.15 0.17 0.13 0.10 0.08 0.08 0.10 0.13 0.16 0.21 0.28 0.24 0.22 0.23 0.25 0.25 0.26 0.30 0.33 0.33 0.35 0.36 0.38 0.43 0.59 0.93 1.12 1.02 0.81 0.76 0.70 0.78 0.87 0.90 0.92 0.89 0.91 0.95 0.98
0.06 0.07 0.09 0.14 0.17 0.13 0.09 0.08 0.07 0.08 0.09 0.12 0.16 0.21 0.26 0.25 0.24 0.24 0.26 0.26 0.27 0.32 0.36 0.37 0.38 0.38 0.40 0.46 0.61 0.71 0.80 0.90 0.82 0.81 0.95 0.90 0.85 0.81 0.75 0.72 0.78 0.79 0.76
0.09 0.10 0.10 0.14 0.16 0.12 0.07 0.06 0.07 0.07 0.09 0.12 0.17 0.21 0.24 0.25 0.25 0.24 0.24 0.26 0.31 0.44 0.52 0.48 0.46 0.43 0.43 0.54 0.73 0.77 0.71 0.77 0.81 0.81 0.89 0.87 0.75 0.66 0.61 0.61 0.61 0.61 0.66
0.12 0.13 0.13 0.14 0.14 0.10 0.06 0.06 0.08 0.10 0.11 0.13 0.16 0.22 0.26 0.27 0.27 0.25 0.25 0.29 0.32 0.54 0.77 0.71 0.70 0.70 0.68 0.79 1.06 1.06 0.95 0.96 0.98 0.98 0.98 0.87 0.73 0.65 0.57 0.52 0.48 0.48 0.57
0.19 0.19 0.16 0.12 0.10 0.09 0.08 0.08 0.10 0.14 0.15 0.16 0.19 0.22 0.27 0.29 0.29 0.29 0.29 0.30 0.33 0.43 0.50 0.54 0.65 0.66 0.79 0.92 0.92 0.89 0.89 0.93 0.96 0.98 0.92 0.75 0.64 0.58 0.55 0.54 0.53 0.49 0.50

GEFSMW_prec_meanprecacc_216.txt.gz
Total_Precipitation_Accumulation
0.01 0.01 0.02 0.02 0.03 0.06 0.09 0.10 0.11 0.17 0.19 0.19 0.24 0.28 0.26 0.26 0.28 0.27 0.25 0.26 0.27 0.28 0.28 0.27 0.27 0.26 0.25 0.26 0.28 0.29 0.29 0.29 0.33 0.37 0.34 0.31 0.33 0.35 0.33 0.31 0.33 0.37 0.39
0.01 0.02 0.03 0.04 0.03 0.04 0.07 0.10 0.10 0.13 0.19 0.19 0.19 0.23 0.23 0.24 0.27 0.27 0.27 0.28 0.27 0.27 0.28 0.28 0.29 0.29 0.27 0.24 0.24 0.27 0.30 0.27 0.28 0.36 0.39 0.33 0.29 0.27 0.25 0.25 0.28 0.34 0.40
0.02 0.03 0.04 0.05 0.05 0.05 0.06 0.09 0.10 0.11 0.16 0.22 0.23 0.26 0.30 0.28 0.30 0.29 0.28 0.28 0.27 0.27 0.27 0.27 0.28 0.28 0.29 0.27 0.23 0.24 0.29 0.31 0.29 0.33 0.47 0.53 0.38 0.27 0.21 0.22 0.24 0.27 0.28
0.01 0.02 0.03 0.04 0.06 0.07 0.08 0.10 0.13 0.12 0.12 0.18 0.26 0.29 0.31 0.28 0.24 0.23 0.24 0.26 0.27 0.27 0.27 0.27 0.28 0.30 0.30 0.28 0.27 0.25 0.27 0.30 0.31 0.31 0.34 0.40 0.42 0.49 0.34 0.16 0.14 0.16 0.18
0.01 0.02 0.01 0.02 0.04 0.06 0.08 0.09 0.14 0.15 0.13 0.13 0.18 0.25 0.29 0.29 0.29 0.28 0.27 0.28 0.29 0.28 0.28 0.28 0.29 0.30 0.30 0.30 0.30 0.28 0.29 0.29 0.31 0.33 0.33 0.30 0.28 0.37 0.54 0.31 0.12 0.11 0.12
0.02 0.03 0.03 0.03 0.03 0.04 0.06 0.09 0.12 0.15 0.15 0.16 0.17 0.22 0.27 0.30 0.33 0.35 0.33 0.30 0.30 0.30 0.29 0.30 0.30 0.31 0.31 0.30 0.31 0.31 0.30 0.29 0.30 0.32 0.35 0.39 0.42 0.37 0.46 0.44 0.24 0.18 0.14
0.03 0.03 0.03 0.05 0.05 0.04 0.05 0.08 0.11 0.14 0.15 0.16 0.19 0.20 0.24 0.27 0.30 0.35 0.34 0.32 0.31 0.32 0.31 0.31 0.31 0.31 0.32 0.33 0.34 0.35 0.36 0.35 0.35 0.34 0.36 0.39 0.42 0.42 0.48 0.54 0.42 0.29 0.19
0.03 0.03 0.03 0.03 0.03 0.04 0.04 0.06 0.08 0.11 0.15 0.17 0.19 0.20 0.23 0.24 0.24 0.29 0.34 0.34 0.32 0.32 0.34 0.37 0.36 0.34 0.35 0.38 0.40 0.40 0.40 0.40 0.40 0.39 0.40 0.44 0.43 0.45 0.51 0.59 0.65 0.55 0.30
0.03 0.03 0.03 0.02 0.03 0.03 0.04 0.06 0.07 0.09 0.11 0.15 0.19 0.21 0.22 0.23 0.22 0.23 0.29 0.33 0.32 0.30 0.32 0.38 0.44 0.47 0.45 0.45 0.48 0.50 0.48 0.48 0.49 0.49 0.49 0.51 0.47 0.46 0.48 0.54 0.69 0.90 0.74
0.04 0.04 0.03 0.03 0.03 0.04 0.04 0.06 0.09 0.09 0.10 0.12 0.17 0.21 0.22 0.23 0.23 0.23 0.25 0.30 0.33 0.34 0.33 0.34 0.40 0.48 0.52 0.53 0.53 0.54 0.56 0.59 0.59 0.59 0.59 0.57 0.56 0.57 0.56 0.58 0.62 0.77 0.94
0.07 0.06 0.04 0.03 0.04 0.05 0.06 0.07 0.10 0.11 0.13 0.13 0.15 0.19 0.24 0.26 0.28 0.30 0.30 0.31 0.35 0.40 0.41 0.38 0.35 0.38 0.45 0.54 0.59 0.60 0.62 0.66 0.66 0.66 0.68 0.68 0.68 0.70 0.69 0.70 0.71 0.76 0.92
0.09 0.08 0.06 0.05 0.06 0.07 0.08 0.10 0.13 0.13 0.15 0.15 0.17 0.18 0.24 0.30 0.34 0.37 0.38 0.40 0.42 0.44 0.47 0.48 0.46 0.40 0.38 0.46 0.54 0.58 0.60 0.65 0.68 0.70 0.74 0.76 0.76 0.79 0.80 0.83 0.82 0.80 0.84
0.07 0.07 0.07 0.07 0.08 0.09 0.10 0.14 0.17 0.15 0.16 0.16 0.18 0.21 0.25 0.32 0.40 0.44 0.47 0.47 0.48 0.52 0.53 0.53 0.55 0.51 0.50 0.53 0.56 0.59 0.62 0.62 0.63 0.65 0.72 0.76 0.83 0.87 0.85 0.87 0.87 0.82 0.76
0.05 0.07 0.07 0.08 0.09 0.10 0.11 0.14 0.18 0.17 0.20 0.23 0.24 0.29 0.35 0.40 0.45 0.50 0.51 0.51 0.53 0.55 0.58 0.59 0.59 0.61 0.67 0.78 0.80 0.71 0.70 0.66 0.64 0.63 0.68 0.75 0.86 0.95 1.01 1.07 0.98 0.90 0.94
0.06 0.08 0.08 0.07 0.09 0.10 0.11 0.15 0.21 0.24 0.30 0.37 0.39 0.38 0.38 0.43 0.43 0.46 0.49 0.51 0.55 0.57 0.58 0.57 0.60 0.65 0.77 1.06 1.08 0.91 0.81 0.75 0.71 0.68 0.68 0.72 0.88 1.09 1.29 1.41 1.34 1.28 1.31
0.07 0.07 0.08 0.08 0.09 0.12 0.17 0.24 0.30 0.35 0.39 0.44 0.47 0.45 0.40 0.40 0.45 0.45 0.46 0.50 0.53 0.53 0.53 0.52 0.54 0.64 0.81 1.19 1.22 1.01 0.79 0.76 0.76 0.75 0.69 0.66 0.75 0.86 1.04 1.26 1.33 1.42 1.52
0.07 0.09 0.11 0.13 0.15 0.19 0.25 0.32 0.36 0.38 0.40 0.44 0.49 0.51 0.45 0.40 0.43 0.44 0.44 0.43 0.44 0.45 0.45 0.45 0.46 0.49 0.66 1.05 1.13 0.98 0.74 0.66 0.67 0.67 0.62 0.62 0.60 0.66 0.64 0.76 0.86 0.96 1.14
0.12 0.14 0.16 0.18 0.21 0.25 0.30 0.34 0.37 0.40 0.40 0.41 0.41 0.43 0.39 0.33 0.36 0.40 0.39 0.36 0.36 0.40 0.41 0.41 0.41 0.38 0.44 0.81 1.06 0.94 0.65 0.59 0.60 0.59 0.61 0.62 0.60 0.59 0.66 0.73 0.76 0.72 0.75
0.10 0.11 0.12 0.15 0.19 0.24 0.27 0.28 0.29 0.31 0.31 0.30 0.28 0.30 0.27 0.27 0.32 0.36 0.33 0.31 0.31 0.32 0.35 0.38 0.42 0.40 0.38 0.62 1.01 1.02 0.68 0.64 0.59 0.59 0.71 0.76 0.68 0.71 0.85 0.96 0.94 0.77 0.67
0.06 0.06 0.07 0.08 0.11 0.15 0.17 0.18 0.18 0.20 0.21 0.21 0.21 0.26 0.25 0.23 0.27 0.32 0.31 0.30 0.29 0.32 0.35 0.38 0.45 0.44 0.39 0.52 0.92 1.17 0.80 0.70 0.62 0.62 0.74 0.98 0.95 0.93 0.98 1.03 1.04 0.99 0.76
0.05 0.05 0.05 0.08 0.11 0.14 0.15 0.14 0.13 0.13 0.14 0.16 0.18 0.25 0.27 0.25 0.24 0.27 0.30 0.30 0.31 0.33 0.35 0.37 0.42 0.45 0.41 0.44 0.74 1.19 1.08 0.85 0.75 0.73 0.80 0.94 1.00 0.99 1.00 1.05 1.03 1.06 1.00
0.05 0.05 0.07 0.10 0.15 0.17 0.14 0.10 0.09 0.09 0.10 0.14 0.17 0.22 0.30 0.27 0.26 0.27 0.27 0.28 0.32 0.35 0.37 0.39 0.41 0.43 0.45 0.47 0.63 0.96 1.16 1.07 0.86 0.80 0.74 0.82 0.93 0.97 1.00 0.97 0.99 1.05 1.07
0.07 0.08 0.09 0.14 0.17 0.14 0.09 0.08 0.08 0.08 0.10 0.13 0.17 0.22 0.28 0.27 0.26 0.27 0.28 0.29 0.30 0.36 0.41 0.43 0.45 0.45 0.47 0.51 0.65 0.76 0.85 0.97 0.89 0.87 1.01 0.97 0.93 0.89 0.84 0.83 0.89 0.90 0.86
0.09 0.10 0.10 0.14 0.16 0.12 0.07 0.07 0.07 0.07 0.09 0.12 0.18 0.22 0.26 0.28 0.28 0.26 0.27 0.29 0.34 0.48 0.56 0.55 0.54 0.49 0.49 0.58 0.78 0.82 0.77 0.83 0.87 0.86 0.95 0.95 0.84 0.74 0.69 0.71 0.73 0.73 0.77
0.12 0.13 0.13 0.15 0.14 0.10 0.07 0.07 0.09 0.10 0.12 0.13 0.17 0.23 0.27 0.29 0.30 0.28 0.28 0.32 0.36 0.58 0.82 0.78 0.77 0.77 0.75 0.84 1.12 1.12 1.01 1.01 1.03 1.04 1.04 0.95 0.81 0.73 0.64 0.61 0.58 0.59 0.68
0.20 0.19 0.16 0.12 0.11 0.10 0.08 0.08 0.10 0.14 0.16 0.17 0.19 0.24 0.29 0.31 0.31 0.30 0.31 0.32 0.36 0.46 0.55 0.61 0.72 0.73 0.86 0.99 0.98 0.95 0.95 0.99 1.02 1.04 0.99 0.83 0.72 0.66 0.62 0.61 0.60 0.57 0.59

GEFSMW_prec_meanprecacc_222.txt.gz
Total_Precipitation_Accumulation
0.01 0.01 0.02 0.02 0.03 0.06 0.09 0.10 0.11 0.17 0.19 0.20 0.25 0.29 0.26 0.27 0.30 0.29 0.26 0.27 0.28 0.29 0.29 0.29 0.29 0.30 0.29 0.30 0.33 0.34 0.34 0.33 0.36 0.41 0.37 0.33 0.35 0.37 0.34 0.32 0.34 0.37 0.39
0.01 0.02 0.03 0.04 0.03 0.04 0.07 0.10 0.10 0.13 0.19 0.19 0.19 0.24 0.24 0.25 0.28 0.29 0.28 0.29 0.28 0.29 0.29 0.30 0.31 0.32 0.31 0.29 0.29 0.32 0.35 0.32 0.32 0.40 0.43 0.37 0.32 0.29 0.26 0.26 0.29 0.34 0.41
0.02 0.03 0.04 0.05 0.05 0.05 0.06 0.09 0.10 0.11 0.16 0.22 0.24 0.28 0.32 0.30 0.32 0.31 0.29 0.29 0.29 0.28 0.28 0.28 0.29 0.31 0.34 0.34 0.30 0.30 0.35 0.36 0.33 0.36 0.51 0.57 0.41 0.29 0.22 0.23 0.24 0.27 0.28
0.01 0.02 0.03 0.04 0.06 0.07 0.08 0.10 0.13 0.12 0.13 0.19 0.27 0.30 0.33 0.29 0.25 0.24 0.26 0.27 0.28 0.28 0.28 0.28 0.30 0.32 0.33 0.35 0.37 0.34 0.34 0.37 0.36 0.35 0.37 0.43 0.45 0.51 0.36 0.16 0.14 0.17 0.19
0.01 0.02 0.01 0.02 0.04 0.06 0.08 0.09 0.14 0.16 0.14 0.15 0.19 0.27 0.32 0.32 0.31 0.30 0.29 0.30 0.31 0.29 0.29 0.28 0.30 0.31 0.32 0.33 0.36 0.38 0.39 0.39 0.39 0.40 0.38 0.34 0.31 0.40 0.56 0.32 0.13 0.12 0.13
0.02 0.03 0.03 0.03 0.03 0.04 0.06 0.09 0.12 0.16 0.16 0.18 0.19 0.24 0.30 0.33 0.37 0.39 0.36 0.33 0.32 0.31 0.31 0.31 0.31 0.32 0.33 0.32 0.35 0.36 0.37 0.37 0.38 0.39 0.40 0.43 0.44 0.39 0.48 0.46 0.25 0.19 0.14
0.03 0.03 0.03 0.05 0.05 0.04 0.05 0.09 0.12 0.15 0.16 0.18 0.21 0.22 0.26 0.29 0.33 0.38 0.37 0.35 0.33 0.33 0.34 0.34 0.33 0.33 0.35 0.36 0.37 0.39 0.40 0.40 0.40 0.39 0.39 0.42 0.44 0.44 0.51 0.58 0.45 0.31 0.20
0.03 0.03 0.03 0.03 0.03 0.04 0.05 0.08 0.10 0.12 0.16 0.19 0.21 0.23 0.25 0.27 0.26 0.31 0.36 0.38 0.34 0.34 0.38 0.41 0.41 0.38 0.38 0.42 0.45 0.46 0.46 0.46 0.46 0.44 0.43 0.46 0.45 0.46 0.53 0.62 0.69 0.58 0.32
0.03 0.03 0.03 0.02 0.03 0.03 0.04 0.06 0.08 0.09 0.12 0.16 0.22 0.24 0.25 0.25 0.24 0.25 0.31 0.35 0.34 0.33 0.35 0.42 0.48 0.51 0.49 0.49 0.52 0.56 0.55 0.56 0.56 0.55 0.53 0.54 0.49 0.48 0.50 0.56 0.72 0.93 0.77
0.04 0.04 0.03 0.03 0.03 0.04 0.04 0.06 0.09 0.09 0.10 0.12 0.17 0.22 0.24 0.25 0.26 0.25 0.27 0.31 0.35 0.36 0.35 0.36 0.42 0.51 0.56 0.56 0.57 0.58 0.61 0.65 0.67 0.67 0.66 0.63 0.61 0.60 0.59 0.61 0.65 0.80 0.98
0.07 0.06 0.04 0.03 0.04 0.05 0.06 0.07 0.11 0.11 0.13 0.13 0.15 0.19 0.25 0.28 0.30 0.33 0.32 0.33 0.36 0.41 0.43 0.40 0.38 0.40 0.48 0.58 0.64 0.64 0.66 0.71 0.71 0.73 0.75 0.74 0.73 0.75 0.74 0.74 0.75 0.78 0.95
0.09 0.08 0.06 0.05 0.06 0.07 0.08 0.10 0.13 0.13 0.15 0.15 0.17 0.19 0.24 0.31 0.35 0.39 0.40 0.42 0.43 0.45 0.48 0.50 0.48 0.42 0.41 0.49 0.58 0.63 0.64 0.69 0.72 0.75 0.80 0.80 0.80 0.84 0.84 0.88 0.86 0.82 0.86
0.08 0.07 0.07 0.08 0.08 0.09 0.10 0.14 0.17 0.16 0.16 0.16 0.18 0.21 0.26 0.33 0.40 0.44 0.47 0.48 0.50 0.53 0.54 0.55 0.57 0.54 0.53 0.56 0.60 0.63 0.66 0.67 0.68 0.69 0.76 0.80 0.86 0.90 0.88 0.90 0.90 0.84 0.78
0.06 0.08 0.08 0.08 0.10 0.11 0.11 0.15 0.19 0.18 0.21 0.24 0.25 0.29 0.36 0.40 0.45 0.50 0.51 0.51 0.53 0.56 0.60 0.61 0.61 0.63 0.70 0.81 0.84 0.75 0.74 0.71 0.68 0.68 0.72 0.78 0.89 0.97 1.03 1.10 1.01 0.93 0.96
0.07 0.09 0.10 0.09 0.11 0.12 0.13 0.17 0.22 0.26 0.32 0.38 0.40 0.39 0.39 0.43 0.43 0.46 0.49 0.52 0.55 0.58 0.59 0.58 0.62 0.67 0.80 1.09 1.12 0.95 0.85 0.80 0.76 0.72 0.73 0.76 0.91 1.12 1.31 1.43 1.37 1.31 1.34
0.07 0.08 0.10 0.11 0.11 0.15 0.20 0.26 0.33 0.37 0.41 0.46 0.48 0.46 0.40 0.40 0.45 0.45 0.47 0.50 0.54 0.54 0.54 0.54 0.55 0.65 0.83 1.22 1.25 1.05 0.84 0.81 0.81 0.80 0.73 0.71 0.78 0.89 1.07 1.29 1.36 1.45 1.55
0.07 0.09 0.11 0.14 0.16 0.21 0.28 0.35 0.39 0.41 0.43 0.46 0.50 0.52 0.45 0.40 0.43 0.45 0.44 0.44 0.44 0.46 0.47 0.47 0.47 0.50 0.67 1.08 1.18 1.02 0.79 0.71 0.72 0.72 0.67 0.67 0.65 0.70 0.68 0.80 0.90 1.00 1.17
0.12 0.14 0.16 0.18 0.22 0.26 0.31 0.36 0.39 0.42 0.42 0.42 0.42 0.43 0.39 0.34 0.36 0.41 0.40 0.36 0.37 0.41 0.42 0.43 0.42 0.40 0.45 0.83 1.10 0.99 0.69 0.63 0.65 0.65 0.66 0.67 0.64 0.63 0.70 0.77 0.80 0.76 0.79
0.10 0.11 0.12 0.15 0.20 0.25 0.28 0.29 0.30 0.32 0.31 0.31 0.29 0.30 0.28 0.27 0.32 0.37 0.34 0.31 0.31 0.33 0.36 0.39 0.43 0.41 0.40 0.64 1.04 1.07 0.72 0.68 0.63 0.64 0.76 0.81 0.73 0.75 0.90 1.02 0.99 0.81 0.70
0.06 0.07 0.08 0.09 0.12 0.16 0.18 0.19 0.19 0.20 0.22 0.21 0.21 0.27 0.25 0.23 0.28 0.34 0.32 0.31 0.30 0.32 0.35 0.38 0.45 0.45 0.40 0.54 0.95 1.22 0.85 0.75 0.66 0.66 0.78 1.03 1.00 0.98 1.02 1.08 1.11 1.06 0.81
0.05 0.05 0.06 0.09 0.12 0.15 0.16 0.15 0.13 0.13 0.14 0.16 0.18 0.25 0.27 0.25 0.25 0.28 0.31 0.31 0.32 0.33 0.36 0.38 0.42 0.46 0.42 0.46 0.76 1.24 1.13 0.90 0.79 0.78 0.84 0.97 1.04 1.03 1.04 1.09 1.08 1.11 1.05
0.06 0.06 0.07 0.11 0.16 0.18 0.14 0.10 0.09 0.09 0.10 0.14 0.17 0.23 0.30 0.28 0.26 0.28 0.28 0.29 0.33 0.37 0.38 0.40 0.42 0.44 0.46 0.48 0.65 1.00 1.22 1.12 0.92 0.86 0.78 0.86 0.97 1.02 1.04 1.01 1.03 1.09 1.13
0.08 0.09 0.10 0.15 0.18 0.14 0.10 0.09 0.08 0.08 0.10 0.13 0.18 0.23 0.28 0.28 0.27 0.28 0.29 0.30 0.33 0.39 0.43 0.45 0.47 0.46 0.48 0.53 0.67 0.79 0.91 1.03 0.95 0.92 1.06 1.02 0.97 0.93 0.88 0.88 0.93 0.94 0.91
0.10 0.11 0.11 0.15 0.17 0.12 0.07 0.07 0.07 0.07 0.09 0.12 0.18 0.23 0.27 0.29 0.28 0.27 0.28 0.30 0.36 0.51 0.59 0.58 0.57 0.52 0.52 0.61 0.81 0.86 0.82 0.89 0.93 0.92 1.00 0.99 0.88 0.78 0.73 0.75 0.77 0.77 0.82
0.13 0.14 0.14 0.15 0.14 0.10 0.07 0.07 0.09 0.10 0.12 0.13 0.17 0.23 0.27 0.29 0.30 0.28 0.29 0.33 0.38 0.61 0.86 0.82 0.81 0.82 0.80 0.88 1.17 1.18 1.07 1.08 1.10 1.10 1.09 0.99 0.86 0.77 0.68 0.65 0.62 0.63 0.72
0.20 0.19 0.16 0.12 0.11 0.10 0.08 0.09 0.11 0.14 0.16 0.17 0.20 0.24 0.29 0.31 0.31 0.31 0.31 0.33 0.37 0.47 0.56 0.63 0.75 0.76 0.91 1.04 1.04 1.02 1.02 1.06 1.09 1.09 1.03 0.87 0.76 0.70 0.66 0.65 0.65 0.62 0.64

GEFSMW_prec_meanprecacc_228.txt.gz
Total_Precipitation_Accumulation
0.01 0.01 0.02 0.02 0.03 0.06 0.09 0.10 0.11 0.17 0.19 0.20 0.25 0.29 0.26 0.27 0.30 0.29 0.27 0.28 0.30 0.31 0.31 0.30 0.30 0.30 0.30 0.31 0.33 0.34 0.35 0.34 0.38 0.44 0.40 0.36 0.38 0.39 0.36 0.34 0.36 0.39 0.41
0.01 0.02 0.03 0.04 0.03 0.04 0.07 0.10 0.10 0.13 0.19 0.19 0.19 0.24 0.24 0.25 0.28 0.29 0.29 0.30 0.30 0.30 0.30 0.30 0.31 0.32 0.32 0.29 0.29 0.32 0.35 0.33 0.34 0.43 0.46 0.40 0.35 0.32 0.29 0.28 0.30 0.35 0.42
0.02 0.03 0.04 0.05 0.05 0.05 0.06 0.09 0.10 0.11 0.16 0.22 0.24 0.28 0.32 0.30 0.32 0.32 0.30 0.30 0.30 0.29 0.29 0.29 0.31 0.31 0.35 0.35 0.30 0.30 0.35 0.36 0.35 0.38 0.55 0.61 0.45 0.32 0.24 0.25 0.26 0.29 0.30
0.01 0.02 0.03 0.04 0.06 0.07 0.08 0.10 0.13 0.12 0.13 0.19 0.27 0.30 0.33 0.29 0.25 0.25 0.27 0.28 0.29 0.29 0.29 0.30 0.31 0.33 0.34 0.36 0.38 0.35 0.35 0.38 0.38 0.38 0.40 0.46 0.48 0.55 0.39 0.18 0.16 0.19 0.21
0.01 0.02 0.01 0.02 0.04 0.06 0.08 0.09 0.14 0.16 0.14 0.15 0.19 0.27 0.32 0.32 0.31 0.31 0.31 0.32 0.33 0.31 0.31 0.30 0.31 0.32 0.33 0.34 0.37 0.39 0.40 0.41 0.41 0.42 0.40 0.37 0.34 0.43 0.59 0.35 0.15 0.14 0.14
0.02 0.03 0.03 0.03 0.03 0.04 0.06 0.09 0.12 0.16 0.16 0.18 0.19 0.25 0.30 0.33 0.37 0.41 0.38 0.34 0.34 0.33 0.32 0.31 0.32 0.33 0.33 0.33 0.35 0.37 0.38 0.39 0.39 0.41 0.42 0.46 0.48 0.42 0.51 0.49 0.28 0.21 0.16
0.03 0.03 0.03 0.05 0.05 0.04 0.05 0.09 0.12 0.15 0.16 0.18 0.21 0.22 0.26 0.30 0.33 0.39 0.39 0.38 0.35 0.36 0.35 0.35 0.34 0.34 0.36 0.37 0.38 0.40 0.40 0.41 0.41 0.40 0.41 0.45 0.47 0.47 0.53 0.60 0.47 0.33 0.22
0.03 0.03 0.03 0.03 0.03 0.04 0.05 0.08 0.10 0.12 0.16 0.19 0.21 0.23 0.26 0.28 0.28 0.33 0.38 0.40 0.37 0.35 0.39 0.42 0.42 0.40 0.40 0.44 0.46 0.47 0.46 0.46 0.46 0.45 0.45 0.48 0.47 0.49 0.56 0.64 0.71 0.60 0.33
0.03 0.03 0.03 0.02 0.03 0.03 0.04 0.06 0.08 0.09 0.12 0.16 0.22 0.25 0.25 0.26 0.25 0.27 0.32 0.36 0.35 0.33 0.35 0.43 0.49 0.53 0.51 0.51 0.54 0.57 0.56 0.56 0.57 0.56 0.55 0.56 0.52 0.50 0.52 0.58 0.74 0.96 0.80
0.04 0.04 0.03 0.03 0.03 0.04 0.04 0.06 0.09 0.09 0.10 0.12 0.17 0.23 0.24 0.26 0.26 0.27 0.28 0.33 0.36 0.38 0.36 0.37 0.43 0.52 0.57 0.58 0.59 0.60 0.62 0.66 0.68 0.68 0.67 0.65 0.63 0.63 0.62 0.63 0.67 0.83 1.01
0.07 0.06 0.04 0.03 0.04 0.05 0.06 0.07 0.11 0.11 0.13 0.13 0.15 0.19 0.26 0.28 0.31 0.34 0.34 0.34 0.39 0.44 0.45 0.41 0.39 0.41 0.49 0.59 0.65 0.66 0.68 0.72 0.73 0.75 0.77 0.77 0.76 0.78 0.77 0.78 0.78 0.82 0.99
0.09 0.09 0.06 0.05 0.06 0.07 0.08 0.10 0.13 0.13 0.15 0.15 0.17 0.19 0.24 0.31 0.35 0.39 0.41 0.44 0.46 0.48 0.50 0.52 0.49 0.43 0.42 0.50 0.60 0.64 0.66 0.71 0.74 0.77 0.82 0.84 0.84 0.87 0.88 0.92 0.91 0.88 0.91
0.08 0.07 0.07 0.08 0.08 0.09 0.10 0.14 0.17 0.16 0.16 0.16 0.18 0.22 0.26 0.33 0.40 0.45 0.48 0.49 0.52 0.56 0.56 0.57 0.58 0.55 0.54 0.57 0.61 0.65 0.67 0.68 0.69 0.71 0.78 0.83 0.91 0.96 0.93 0.94 0.94 0.89 0.83
0.06 0.08 0.08 0.08 0.10 0.11 0.11 0.15 0.19 0.18 0.21 0.24 0.25 0.30 0.37 0.41 0.46 0.51 0.52 0.52 0.54 0.58 0.63 0.64 0.63 0.65 0.71 0.83 0.85 0.77 0.76 0.72 0.69 0.69 0.73 0.80 0.92 1.01 1.09 1.15 1.06 0.97 1.01
0.07 0.09 0.10 0.09 0.11 0.12 0.13 0.17 0.22 0.26 0.32 0.38 0.40 0.40 0.40 0.44 0.44 0.47 0.50 0.52 0.56 0.58 0.60 0.60 0.63 0.69 0.82 1.11 1.14 0.97 0.87 0.81 0.77 0.73 0.74 0.78 0.94 1.15 1.35 1.48 1.42 1.37 1.40
0.07 0.08 0.10 0.11 0.11 0.15 0.21 0.27 0.34 0.37 0.41 0.46 0.49 0.47 0.42 0.41 0.46 0.46 0.47 0.51 0.55 0.55 0.54 0.54 0.56 0.67 0.84 1.23 1.27 1.06 0.85 0.82 0.82 0.81 0.74 0.72 0.81 0.93 1.11 1.33 1.40 1.49 1.60
0.07 0.09 0.11 0.14 0.16 0.21 0.28 0.35 0.39 0.41 0.44 0.47 0.52 0.53 0.46 0.41 0.44 0.46 0.45 0.44 0.45 0.47 0.47 0.47 0.48 0.51 0.68 1.09 1.19 1.04 0.80 0.72 0.73 0.73 0.68 0.68 0.67 0.73 0.71 0.84 0.94 1.03 1.21
0.13 0.14 0.16 0.18 0.22 0.26 0.31 0.37 0.41 0.44 0.44 0.45 0.45 0.46 0.40 0.35 0.37 0.42 0.40 0.37 0.37 0.41 0.43 0.43 0.42 0.40 0.46 0.84 1.11 1.00 0.71 0.65 0.66 0.66 0.68 0.69 0.66 0.66 0.74 0.82 0.85 0.79 0.82
0.11 0.12 0.13 0.15 0.20 0.25 0.28 0.29 0.31 0.33 0.34 0.33 0.32 0.33 0.30 0.29 0.34 0.38 0.35 0.32 0.31 0.33 0.36 0.39 0.43 0.41 0.40 0.65 1.05 1.08 0.74 0.69 0.65 0.66 0.78 0.83 0.74 0.78 0.95 1.07 1.04 0.85 0.73
0.06 0.07 0.08 0.09 0.12 0.16 0.19 0.20 0.20 0.21 0.23 0.23 0.23 0.28 0.26 0.24 0.29 0.34 0.32 0.31 0.30 0.32 0.35 0.38 0.46 0.46 0.40 0.55 0.96 1.23 0.86 0.76 0.67 0.68 0.80 1.06 1.03 1.00 1.07 1.13 1.16 1.11 0.84
0.06 0.06 0.07 0.10 0.13 0.16 0.17 0.16 0.14 0.15 0.16 0.17 0.19 0.26 0.27 0.25 0.26 0.28 0.31 0.31 0.32 0.33 0.36 0.38 0.43 0.46 0.42 0.46 0.77 1.24 1.14 0.91 0.81 0.80 0.86 0.99 1.08 1.07 1.08 1.14 1.12 1.16 1.10
0.07 0.08 0.10 0.13 0.18 0.19 0.15 0.12 0.10 0.10 0.11 0.15 0.18 0.23 0.30 0.28 0.27 0.28 0.29 0.29 0.33 0.37 0.38 0.40 0.42 0.44 0.46 0.49 0.66 1.01 1.23 1.14 0.94 0.88 0.81 0.89 1.01 1.06 1.08 1.05 1.06 1.14 1.18
0.09 0.10 0.11 0.15 0.18 0.15 0.10 0.09 0.09 0.09 0.10 0.14 0.18 0.23 0.29 0.28 0.27 0.28 0.29 0.30 0.33 0.39 0.43 0.45 0.47 0.47 0.48 0.53 0.67 0.80 0.92 1.04 0.97 0.95 1.09 1.05 1.01 0.97 0.92 0.91 0.97 0.98 0.95
0.11 0.12 0.12 0.15 0.18 0.13 0.08 0.08 0.08 0.08 0.10 0.13 0.18 0.24 0.28 0.29 0.28 0.27 0.28 0.30 0.37 0.51 0.59 0.58 0.57 0.53 0.52 0.62 0.82 0.87 0.83 0.91 0.94 0.94 1.03 1.03 0.92 0.82 0.78 0.79 0.80 0.80 0.87
0.14 0.14 0.14 0.16 0.15 0.11 0.08 0.07 0.09 0.11 0.13 0.14 0.18 0.24 0.28 0.30 0.30 0.28 0.29 0.34 0.38 0.62 0.87 0.84 0.82 0.83 0.81 0.90 1.19 1.20 1.09 1.10 1.13 1.14 1.13 1.03 0.90 0.81 0.72 0.68 0.65 0.66 0.77
0.21 0.20 0.17 0.13 0.11 0.11 0.09 0.10 0.12 0.16 0.17 0.18 0.20 0.24 0.29 0.32 0.31 0.31 0.31 0.34 0.38 0.48 0.58 0.65 0.77 0.78 0.93 1.06 1.06 1.04 1.04 1.08 1.12 1.14 1.08 0.91 0.80 0.74 0.69 0.68 0.68 0.65 0.68

GEFSMW_prec_meanprecacc_234.txt.gz
Total_Precipitation_Accumulation
0.01 0.01 0.02 0.02 0.03 0.06 0.09 0.10 0.11 0.17 0.19 0.20 0.25 0.29 0.27 0.27 0.30 0.29 0.27 0.29 0.30 0.31 0.32 0.31 0.31 0.32 0.31 0.32 0.34 0.35 0.35 0.35 0.38 0.44 0.40 0.37 0.38 0.39 0.37 0.34 0.36 0.39 0.42
0.01 0.02 0.03 0.04 0.03 0.04 0.07 0.10 0.10 0.13 0.19 0.19 0.19 0.24 0.24 0.26 0.28 0.29 0.30 0.30 0.30 0.30 0.31 0.31 0.32 0.34 0.33 0.31 0.30 0.33 0.36 0.34 0.34 0.43 0.46 0.40 0.35 0.32 0.29 0.28 0.31 0.36 0.42
0.02 0.03 0.04 0.05 0.05 0.05 0.06 0.09 0.10 0.11 0.16 0.22 0.24 0.28 0.32 0.31 0.32 0.32 0.30 0.31 0.30 0.30 0.30 0.30 0.32 0.33 0.36 0.35 0.31 0.31 0.36 0.37 0.35 0.39 0.55 0.61 0.45 0.32 0.25 0.25 0.27 0.29 0.30
0.01 0.02 0.03 0.04 0.06 0.07 0.08 0.10 0.13 0.12 0.13 0.19 0.27 0.30 0.33 0.30 0.25 0.25 0.27 0.29 0.30 0.30 0.30 0.31 0.32 0.34 0.35 0.37 0.38 0.35 0.36 0.39 0.39 0.38 0.40 0.47 0.49 0.56 0.40 0.19 0.16 0.19 0.21
0.01 0.02 0.01 0.02 0.04 0.06 0.08 0.09 0.14 0.16 0.14 0.15 0.20 0.28 0.32 0.32 0.32 0.31 0.31 0.32 0.34 0.33 0.32 0.31 0.32 0.33 0.34 0.34 0.37 0.39 0.41 0.41 0.41 0.43 0.41 0.37 0.35 0.43 0.59 0.35 0.15 0.14 0.15
0.02 0.03 0.03 0.03 0.03 0.04 0.06 0.09 0.12 0.16 0.16 0.18 0.19 0.25 0.30 0.34 0.38 0.41 0.38 0.35 0.35 0.35 0.34 0.33 0.33 0.34 0.34 0.33 0.35 0.37 0.38 0.39 0.40 0.41 0.43 0.46 0.48 0.43 0.52 0.50 0.29 0.21 0.16
0.03 0.03 0.03 0.05 0.06 0.04 0.05 0.09 0.12 0.15 0.17 0.18 0.21 0.22 0.26 0.30 0.33 0.39 0.39 0.38 0.36 0.37 0.39 0.37 0.35 0.35 0.36 0.37 0.38 0.40 0.41 0.41 0.41 0.41 0.42 0.45 0.48 0.48 0.55 0.62 0.49 0.34 0.22
0.03 0.03 0.03 0.03 0.04 0.04 0.05 0.08 0.10 0.13 0.17 0.19 0.21 0.23 0.26 0.28 0.28 0.33 0.39 0.41 0.38 0.37 0.42 0.44 0.43 0.40 0.40 0.44 0.46 0.47 0.47 0.47 0.47 0.45 0.46 0.49 0.48 0.49 0.56 0.65 0.71 0.61 0.34
0.03 0.03 0.03 0.02 0.03 0.03 0.04 0.06 0.08 0.09 0.12 0.17 0.22 0.25 0.25 0.26 0.26 0.27 0.33 0.37 0.36 0.35 0.37 0.45 0.51 0.54 0.52 0.51 0.54 0.57 0.56 0.57 0.57 0.56 0.56 0.57 0.52 0.51 0.53 0.59 0.75 0.97 0.81
0.04 0.04 0.03 0.03 0.03 0.04 0.04 0.06 0.09 0.10 0.11 0.12 0.17 0.23 0.24 0.26 0.26 0.27 0.29 0.34 0.38 0.39 0.37 0.39 0.45 0.54 0.58 0.59 0.60 0.60 0.63 0.67 0.68 0.68 0.67 0.65 0.64 0.64 0.63 0.64 0.69 0.85 1.03
0.07 0.07 0.04 0.03 0.04 0.05 0.06 0.07 0.11 0.12 0.13 0.14 0.15 0.19 0.26 0.28 0.31 0.34 0.35 0.36 0.40 0.46 0.47 0.43 0.41 0.43 0.50 0.60 0.67 0.67 0.69 0.73 0.74 0.75 0.78 0.77 0.77 0.79 0.78 0.79 0.79 0.83 1.01
0.10 0.09 0.06 0.05 0.06 0.07 0.09 0.11 0.14 0.14 0.15 0.15 0.17 0.19 0.25 0.32 0.36 0.40 0.43 0.45 0.48 0.50 0.53 0.53 0.51 0.45 0.44 0.52 0.61 0.65 0.68 0.73 0.75 0.78 0.83 0.84 0.85 0.88 0.89 0.93 0.93 0.90 0.93
0.08 0.08 0.08 0.08 0.09 0.09 0.11 0.15 0.18 0.16 0.17 0.17 0.19 0.22 0.26 0.33 0.41 0.46 0.49 0.50 0.53 0.58 0.59 0.59 0.60 0.56 0.55 0.59 0.62 0.65 0.68 0.69 0.71 0.73 0.79 0.84 0.92 0.97 0.95 0.96 0.96 0.91 0.84
0.07 0.08 0.08 0.09 0.10 0.11 0.12 0.16 0.20 0.19 0.22 0.24 0.25 0.30 0.37 0.41 0.46 0.51 0.53 0.53 0.55 0.60 0.64 0.65 0.65 0.66 0.72 0.84 0.86 0.77 0.76 0.73 0.70 0.70 0.75 0.82 0.93 1.03 1.10 1.17 1.08 1.00 1.03
0.08 0.10 0.11 0.10 0.12 0.13 0.15 0.19 0.24 0.27 0.32 0.38 0.40 0.40 0.40 0.44 0.44 0.47 0.50 0.53 0.56 0.59 0.61 0.61 0.64 0.70 0.83 1.12 1.14 0.97 0.87 0.82 0.78 0.74 0.75 0.78 0.95 1.16 1.37 1.50 1.44 1.40 1.44
0.09 0.09 0.12 0.12 0.12 0.17 0.23 0.29 0.36 0.39 0.42 0.46 0.49 0.47 0.42 0.41 0.46 0.47 0.48 0.51 0.55 0.56 0.56 0.56 0.57 0.67 0.85 1.24 1.28 1.07 0.86 0.82 0.83 0.82 0.76 0.73 0.82 0.94 1.12 1.34 1.42 1.51 1.63
0.09 0.09 0.12 0.15 0.17 0.22 0.29 0.37 0.41 0.42 0.44 0.48 0.52 0.54 0.47 0.42 0.44 0.46 0.45 0.45 0.45 0.47 0.48 0.49 0.49 0.52 0.68 1.10 1.19 1.04 0.81 0.73 0.74 0.74 0.69 0.69 0.68 0.74 0.72 0.85 0.95 1.05 1.23
0.15 0.15 0.16 0.18 0.22 0.26 0.32 0.38 0.42 0.44 0.45 0.45 0.45 0.46 0.41 0.35 0.38 0.42 0.41 0.37 0.37 0.41 0.43 0.43 0.43 0.40 0.46 0.84 1.12 1.01 0.71 0.65 0.66 0.67 0.69 0.70 0.67 0.67 0.75 0.83 0.86 0.80 0.83
0.14 0.13 0.13 0.15 0.20 0.25 0.28 0.30 0.32 0.34 0.34 0.34 0.33 0.33 0.30 0.30 0.34 0.39 0.36 0.32 0.32 0.34 0.37 0.40 0.43 0.41 0.40 0.65 1.05 1.08 0.74 0.70 0.65 0.66 0.79 0.84 0.75 0.78 0.96 1.09 1.06 0.87 0.74
0.07 0.08 0.09 0.10 0.12 0.16 0.19 0.20 0.21 0.22 0.24 0.24 0.24 0.29 0.27 0.25 0.30 0.35 0.34 0.32 0.31 0.34 0.36 0.39 0.46 0.46 0.40 0.55 0.96 1.23 0.86 0.77 0.67 0.68 0.81 1.07 1.04 1.02 1.09 1.15 1.19 1.13 0.86
0.07 0.08 0.09 0.13 0.15 0.17 0.18 0.17 0.15 0.16 0.17 0.18 0.20 0.26 0.28 0.26 0.27 0.29 0.32 0.32 0.33 0.34 0.36 0.38 0.43 0.46 0.42 0.46 0.77 1.25 1.15 0.92 0.82 0.80 0.87 1.00 1.09 1.08 1.10 1.16 1.15 1.18 1.12
0.09 0.10 0.12 0.17 0.22 0.22 0.18 0.14 0.12 0.11 0.12 0.16 0.18 0.23 0.31 0.29 0.27 0.29 0.29 0.30 0.34 0.37 0.39 0.40 0.42 0.44 0.46 0.49 0.66 1.02 1.24 1.15 0.95 0.89 0.81 0.90 1.02 1.08 1.11 1.07 1.08 1.16 1.21
0.12 0.14 0.15 0.19 0.22 0.18 0.13 0.12 0.11 0.10 0.11 0.15 0.19 0.24 0.30 0.29 0.28 0.29 0.30 0.31 0.34 0.39 0.44 0.46 0.47 0.47 0.49 0.54 0.68 0.81 0.92 1.05 0.98 0.95 1.10 1.06 1.02 0.99 0.94 0.93 0.98 1.00 0.98
0.14 0.14 0.14 0.17 0.20 0.15 0.10 0.09 0.09 0.09 0.11 0.14 0.20 0.25 0.29 0.31 0.30 0.28 0.29 0.31 0.37 0.52 0.60 0.59 0.58 0.53 0.52 0.62 0.82 0.87 0.83 0.91 0.95 0.95 1.04 1.04 0.93 0.83 0.79 0.81 0.82 0.82 0.89
0.16 0.16 0.16 0.17 0.17 0.13 0.10 0.09 0.11 0.13 0.14 0.16 0.20 0.25 0.29 0.31 0.31 0.29 0.30 0.34 0.39 0.63 0.89 0.85 0.84 0.84 0.82 0.91 1.20 1.21 1.11 1.12 1.14 1.15 1.15 1.05 0.91 0.83 0.74 0.70 0.67 0.68 0.79
0.22 0.21 0.18 0.14 0.12 0.11 0.10 0.11 0.13 0.17 0.19 0.20 0.22 0.26 0.31 0.33 0.32 0.32 0.32 0.34 0.38 0.49 0.59 0.66 0.79 0.80 0.94 1.08 1.08 1.05 1.05 1.09 1.13 1.16 1.09 0.92 0.81 0.76 0.71 0.70 0.70 0.68 0.70

GEFSMW_prec_meanprecacc_240.txt.gz
Total_Precipitation_Accumulation
0.01 0.01 0.02 0.02 0.03 0.06 0.09 0.10 0.11 0.17 0.20 0.21 0.26 0.30 0.27 0.28 0.31 0.30 0.28 0.29 0.31 0.32 0.32 0.32 0.32 0.32 0.31 0.32 0.35 0.35 0.35 0.35 0.38 0.44 0.40 0.37 0.38 0.39 0.37 0.34 0.37 0.39 0.42
0.01 0.02 0.03 0.04 0.03 0.04 0.07 0.10 0.10 0.13 0.19 0.19 0.20 0.25 0.25 0.27 0.29 0.30 0.31 0.32 0.32 0.31 0.31 0.31 0.33 0.34 0.34 0.31 0.30 0.33 0.36 0.34 0.34 0.43 0.46 0.40 0.35 0.32 0.29 0.28 0.31 0.36 0.42
0.02 0.03 0.04 0.05 0.05 0.05 0.06 0.09 0.10 0.11 0.16 0.22 0.24 0.29 0.33 0.31 0.33 0.32 0.31 0.32 0.32 0.32 0.32 0.31 0.32 0.33 0.36 0.36 0.31 0.31 0.36 0.37 0.35 0.39 0.55 0.62 0.45 0.32 0.25 0.25 0.27 0.29 0.30
0.01 0.02 0.03 0.04 0.06 0.07 0.08 0.10 0.13 0.12 0.13 0.19 0.28 0.31 0.33 0.30 0.25 0.25 0.27 0.30 0.31 0.31 0.31 0.32 0.33 0.35 0.36 0.37 0.39 0.35 0.36 0.39 0.39 0.38 0.40 0.47 0.49 0.56 0.40 0.19 0.17 0.20 0.22
0.01 0.02 0.01 0.02 0.04 0.06 0.08 0.09 0.14 0.16 0.14 0.15 0.20 0.28 0.32 0.32 0.32 0.31 0.31 0.33 0.34 0.33 0.33 0.31 0.32 0.34 0.34 0.35 0.37 0.39 0.41 0.41 0.41 0.43 0.41 0.37 0.35 0.43 0.60 0.36 0.17 0.15 0.15
0.02 0.03 0.03 0.03 0.03 0.04 0.06 0.09 0.12 0.16 0.16 0.18 0.19 0.25 0.30 0.34 0.38 0.41 0.38 0.35 0.35 0.35 0.35 0.34 0.33 0.35 0.35 0.33 0.35 0.37 0.38 0.39 0.40 0.41 0.43 0.46 0.48 0.43 0.52 0.50 0.29 0.21 0.16
0.03 0.03 0.03 0.05 0.06 0.04 0.05 0.09 0.12 0.15 0.17 0.18 0.21 0.23 0.26 0.30 0.34 0.39 0.40 0.38 0.36 0.37 0.39 0.38 0.36 0.36 0.37 0.38 0.38 0.41 0.41 0.41 0.41 0.41 0.42 0.45 0.48 0.48 0.55 0.62 0.49 0.34 0.23
0.03 0.03 0.03 0.03 0.04 0.04 0.05 0.08 0.10 0.13 0.17 0.19 0.21 0.23 0.26 0.28 0.28 0.33 0.39 0.41 0.38 0.37 0.42 0.45 0.44 0.42 0.42 0.45 0.48 0.49 0.49 0.48 0.47 0.45 0.46 0.49 0.48 0.50 0.56 0.65 0.72 0.62 0.34
0.03 0.03 0.03 0.02 0.03 0.03 0.04 0.06 0.08 0.09 0.12 0.17 0.22 0.25 0.25 0.27 0.26 0.27 0.33 0.38 0.37 0.35 0.37 0.45 0.52 0.55 0.54 0.53 0.56 0.59 0.58 0.59 0.58 0.56 0.56 0.57 0.53 0.51 0.53 0.59 0.75 0.98 0.82
0.04 0.04 0.03 0.03 0.03 0.04 0.04 0.06 0.09 0.10 0.11 0.13 0.17 0.23 0.25 0.26 0.27 0.27 0.29 0.34 0.38 0.39 0.38 0.39 0.46 0.55 0.61 0.61 0.62 0.62 0.64 0.68 0.69 0.69 0.68 0.66 0.64 0.64 0.63 0.65 0.69 0.85 1.04
0.08 0.07 0.05 0.03 0.04 0.05 0.06 0.07 0.11 0.12 0.13 0.14 0.15 0.19 0.26 0.29 0.32 0.35 0.36 0.36 0.41 0.46 0.47 0.43 0.42 0.45 0.53 0.62 0.69 0.69 0.71 0.75 0.75 0.76 0.78 0.78 0.77 0.80 0.79 0.79 0.79 0.84 1.02
0.10 0.09 0.06 0.05 0.06 0.07 0.09 0.11 0.14 0.14 0.16 0.16 0.17 0.19 0.25 0.32 0.37 0.41 0.43 0.46 0.48 0.51 0.54 0.54 0.51 0.46 0.46 0.55 0.63 0.67 0.69 0.74 0.76 0.78 0.84 0.85 0.85 0.88 0.89 0.94 0.93 0.90 0.94
0.08 0.08 0.08 0.08 0.09 0.10 0.11 0.15 0.18 0.17 0.18 0.18 0.19 0.22 0.26 0.34 0.41 0.47 0.50 0.50 0.54 0.59 0.60 0.62 0.62 0.58 0.57 0.62 0.65 0.68 0.70 0.71 0.71 0.73 0.80 0.85 0.92 0.97 0.95 0.96 0.96 0.91 0.85
0.07 0.09 0.09 0.09 0.11 0.12 0.13 0.17 0.21 0.20 0.22 0.25 0.26 0.31 0.37 0.42 0.47 0.52 0.53 0.54 0.56 0.61 0.66 0.67 0.68 0.70 0.74 0.87 0.90 0.80 0.79 0.74 0.71 0.70 0.75 0.82 0.94 1.03 1.11 1.19 1.10 1.01 1.05
0.08 0.11 0.11 0.10 0.13 0.14 0.15 0.20 0.25 0.28 0.33 0.39 0.41 0.41 0.42 0.46 0.46 0.48 0.51 0.53 0.57 0.60 0.62 0.63 0.66 0.72 0.85 1.15 1.18 1.00 0.90 0.83 0.78 0.75 0.75 0.79 0.95 1.17 1.38 1.51 1.46 1.42 1.46
0.09 0.09 0.12 0.13 0.13 0.18 0.24 0.30 0.37 0.40 0.43 0.48 0.50 0.48 0.44 0.43 0.47 0.48 0.48 0.52 0.56 0.57 0.57 0.57 0.59 0.68 0.86 1.26 1.30 1.09 0.87 0.83 0.83 0.82 0.76 0.74 0.82 0.95 1.13 1.36 1.44 1.53 1.65
0.09 0.10 0.13 0.17 0.18 0.24 0.32 0.39 0.43 0.44 0.46 0.49 0.53 0.55 0.48 0.43 0.46 0.47 0.46 0.46 0.46 0.48 0.49 0.50 0.50 0.52 0.69 1.11 1.20 1.05 0.81 0.73 0.74 0.74 0.70 0.70 0.69 0.75 0.73 0.86 0.96 1.06 1.24
0.15 0.15 0.17 0.20 0.24 0.30 0.35 0.41 0.44 0.46 0.47 0.47 0.47 0.47 0.42 0.37 0.39 0.43 0.42 0.39 0.39 0.43 0.44 0.45 0.44 0.41 0.46 0.85 1.12 1.01 0.71 0.65 0.67 0.67 0.69 0.70 0.67 0.67 0.75 0.83 0.87 0.81 0.84
0.14 0.14 0.14 0.16 0.22 0.27 0.31 0.33 0.36 0.37 0.37 0.37 0.35 0.35 0.32 0.31 0.35 0.40 0.37 0.34 0.33 0.35 0.38 0.40 0.44 0.42 0.41 0.66 1.05 1.09 0.74 0.70 0.65 0.66 0.79 0.84 0.75 0.79 0.97 1.10 1.07 0.88 0.75
0.08 0.09 0.10 0.11 0.13 0.18 0.21 0.22 0.23 0.25 0.27 0.27 0.27 0.32 0.29 0.27 0.32 0.37 0.36 0.34 0.32 0.35 0.37 0.40 0.47 0.47 0.41 0.56 0.97 1.24 0.87 0.77 0.68 0.68 0.81 1.07 1.04 1.02 1.10 1.17 1.20 1.14 0.87
0.09 0.10 0.12 0.14 0.16 0.19 0.20 0.20 0.18 0.19 0.20 0.21 0.23 0.30 0.31 0.29 0.30 0.32 0.34 0.34 0.35 0.36 0.38 0.39 0.44 0.47 0.43 0.47 0.78 1.25 1.15 0.92 0.82 0.81 0.87 1.00 1.09 1.09 1.11 1.18 1.16 1.20 1.14
0.11 0.12 0.15 0.20 0.25 0.25 0.20 0.17 0.14 0.13 0.14 0.18 0.21 0.26 0.33 0.31 0.30 0.31 0.32 0.32 0.36 0.39 0.40 0.41 0.44 0.46 0.47 0.50 0.67 1.02 1.24 1.16 0.96 0.90 0.82 0.90 1.03 1.09 1.12 1.08 1.10 1.18 1.23
0.14 0.15 0.17 0.21 0.25 0.21 0.16 0.14 0.13 0.12 0.13 0.16 0.20 0.25 0.31 0.30 0.29 0.31 0.32 0.32 0.35 0.41 0.45 0.47 0.49 0.48 0.50 0.54 0.69 0.81 0.93 1.06 0.99 0.96 1.10 1.07 1.03 0.99 0.95 0.94 0.99 1.01 0.99
0.16 0.16 0.16 0.19 0.22 0.17 0.12 0.11 0.11 0.11 0.13 0.16 0.21 0.26 0.30 0.32 0.31 0.30 0.31 0.33 0.39 0.54 0.62 0.61 0.59 0.54 0.53 0.62 0.82 0.87 0.84 0.92 0.96 0.96 1.04 1.04 0.94 0.84 0.80 0.82 0.83 0.83 0.90
0.19 0.19 0.19 0.20 0.19 0.15 0.11 0.11 0.13 0.15 0.17 0.19 0.23 0.28 0.32 0.33 0.34 0.32 0.32 0.36 0.41 0.65 0.91 0.87 0.85 0.86 0.83 0.91 1.21 1.23 1.12 1.13 1.16 1.17 1.16 1.05 0.92 0.83 0.75 0.71 0.68 0.69 0.80
0.25 0.24 0.21 0.17 0.15 0.13 0.12 0.13 0.15 0.19 0.21 0.22 0.24 0.28 0.33 0.35 0.34 0.34 0.34 0.36 0.40 0.51 0.60 0.67 0.80 0.81 0.96 1.10 1.09 1.07 1.07 1.11 1.14 1.17 1.10 0.93 0.81 0.76 0.72 0.71 0.71 0.69 0.71